[[[{"header":{"parameterUnit":"kt","parameterCategory":2,"dx":1,"dy":1,"la1":30.253999710083008,"la2":30.299108505249023,"lo1":-89.0895004272461,"lo2":-89.04439544677734,"nx":28,"ny":28,"refTime":"2022-09-17T21:00:00:Z","depth":"0","parameterNumber":2,"parameterNumberName":"U-component_of_CURRENTS"},"data":[-0.3428,-0.3604,-0.3815,-0.407,-0.4283,-0.4152,-0.4067,-0.3779,-0.3374,-0.2475,-0.1585,-0.1174,-0.0675,-0.0172,-0.0097,-0.0443,-0.0656,-0.0947,-0.1203,-0.1199,-0.1307,-0.141,-0.1256,-0.0395,-0.0394,-0.0554,-0.0555,-0.0555,-0.3546,-0.3773,-0.4089,-0.447,-0.464,-0.4838,-0.4952,-0.473,-0.4592,-0.4259,-0.4001,-0.2879,-0.232,-0.2046,-0.1606,-0.1719,-0.205,-0.1861,-0.1852,-0.1897,-0.2296,-0.215,-0.1463,-0.1464,-0.1464,-0.1465,-0.1465,-0.1465,-0.3811,-0.3952,-0.4338,-0.4641,-0.4919,-0.5103,-0.5065,-0.5248,-0.5299,-0.5026,-0.5282,-0.469,-0.412,-0.368,-0.3814,-0.3329,-0.3801,-0.2978,-0.3112,-0.3332,-0.3188,-0.3772,-0.3443,-0.3448,-0.3453,-0.3457,-0.3461,0,-0.4007,-0.4174,-0.4464,-0.4854,-0.507,-0.529,-0.549,-0.5556,-0.573,-0.575,-0.5728,-0.5656,-0.5428,-0.4873,-0.4657,-0.4584,-0.4317,-0.4397,-0.4078,-0.3344,-0.3454,-0.3357,-0.4064,-0.3831,-0.3839,-0.3845,-0.3849,-0.3852,-0.4121,-0.431,-0.4823,-0.4994,-0.519,-0.541,-0.5536,-0.5734,-0.5797,-0.5891,-0.5878,-0.5836,-0.5739,-0.552,-0.527,-0.5058,-0.5001,-0.459,-0.4432,-0.4078,-0.4098,-0.4267,-0.4226,-0.3938,-0.3927,-0.3918,-0.3911,0,-0.4143,-0.449,-0.4828,-0.526,-0.5373,-0.5486,-0.5731,-0.5791,-0.587,-0.5899,-0.5896,-0.5909,-0.58,-0.5732,-0.5577,-0.5443,-0.5115,-0.5239,-0.4856,-0.4741,-0.4152,-0.4217,-0.4147,-0.4076,-0.4953,-0.495,-0.4947,0,-0.4287,-0.4505,-0.497,-0.5153,-0.5373,-0.5594,-0.5718,-0.5806,-0.5879,-0.591,-0.5917,-0.5896,-0.5781,-0.5728,-0.5625,-0.5434,-0.5503,-0.5236,-0.5165,-0.4814,-0.4772,-0.4363,-0.4394,-0.5332,-0.5332,-0.5333,-0.5333,0,-0.4193,-0.4689,-0.4989,-0.5135,-0.5526,-0.5608,-0.5722,-0.5814,-0.5871,-0.589,-0.587,-0.5847,-0.5785,-0.5697,-0.5594,-0.5544,-0.5462,-0.536,-0.5197,-0.5186,-0.4746,-0.4695,-0.4355,-0.5334,-0.5334,-0.5334,-0.5334,0,-0.4286,-0.4589,-0.4967,-0.5325,-0.5409,-0.5542,-0.5682,-0.5798,-0.5838,-0.5827,-0.581,-0.5737,-0.5737,-0.5655,-0.5564,-0.5556,-0.5479,-0.539,-0.5383,-0.5185,-0.5067,-0.4617,-0.4629,-0.4262,-0.5264,-0.5264,-0.5264,0,-0.4157,-0.4591,-0.4771,-0.5095,-0.5326,-0.5423,-0.5538,-0.5638,-0.5655,-0.5671,-0.5627,-0.5613,-0.5572,-0.5527,-0.5527,-0.5399,-0.5414,-0.543,-0.5197,-0.5192,-0.5054,-0.5168,-0.475,-0.4651,-0.5264,-0.5264,-0.5264,0,-0.4032,-0.4524,-0.4565,-0.4739,-0.5011,-0.5133,-0.5285,-0.543,-0.5459,-0.5493,-0.5506,-0.5544,-0.5456,-0.5441,-0.538,-0.5365,-0.5408,-0.5254,-0.5247,-0.5213,-0.5307,-0.5181,-0.5169,-0.5324,-0.5325,-0.5325,-0.5263,0,-0.4134,-0.4352,-0.4467,-0.4736,-0.486,-0.5041,-0.516,-0.5226,-0.5207,-0.5221,-0.5253,-0.521,-0.518,-0.5195,-0.5152,-0.5216,-0.5139,-0.5069,-0.4966,-0.5093,-0.5049,-0.505,-0.4974,-0.497,-0.4967,-0.4964,0,0,-0.3926,-0.418,-0.4302,-0.4504,-0.4617,-0.4666,-0.4842,-0.49,-0.499,-0.4995,-0.4935,-0.4911,-0.4896,-0.495,-0.5002,-0.4994,-0.4929,-0.4952,-0.5043,-0.5053,-0.5061,-0.5026,-0.5031,-0.4958,-0.4957,-0.4956,-0.4954,0,-0.3966,-0.4074,-0.424,-0.4383,-0.4566,-0.462,-0.4678,-0.4793,-0.4803,-0.4891,-0.4785,-0.4792,-0.4801,-0.4787,-0.4778,-0.4941,-0.4809,-0.4929,-0.5055,-0.5016,-0.503,-0.5042,-0.5011,-0.5018,-0.4946,-0.4947,-0.4947,0,-0.3882,-0.4019,-0.4096,-0.4321,-0.4396,-0.4552,-0.4481,-0.4616,-0.4702,-0.4561,-0.4622,-0.4572,-0.4528,-0.4598,-0.4622,-0.4572,-0.4692,-0.4674,-0.4691,-0.4684,-0.4635,-0.4654,-0.467,-0.4454,-0.4453,-0.4452,0,0,-0.3895,-0.4048,-0.4211,-0.433,-0.4408,-0.4462,-0.4516,-0.4535,-0.4569,-0.4566,-0.4526,-0.4486,-0.4489,-0.4498,-0.4493,-0.4577,-0.4507,-0.462,-0.4643,-0.4663,-0.4667,-0.4624,-0.4642,-0.4448,-0.4448,-0.4448,0,0,-0.3875,-0.409,-0.4096,-0.4255,-0.4378,-0.4461,-0.4517,-0.4507,-0.4517,-0.448,-0.4393,-0.4383,-0.4441,-0.4403,-0.4357,-0.4463,-0.436,-0.437,-0.4502,-0.453,-0.4553,-0.4554,-0.4232,0,0,0,0,0,-0.3973,-0.4085,-0.4091,-0.4129,-0.4298,-0.4474,-0.4487,-0.4474,-0.4393,-0.4463,-0.44,-0.4325,-0.4357,-0.4314,-0.4315,-0.4387,-0.4394,-0.4403,-0.4412,-0.4601,-0.4631,-0.4656,0,0,0,0,0,0,-0.3989,-0.4039,-0.4088,-0.4184,-0.4222,-0.4466,-0.4337,-0.4334,-0.4387,-0.4375,-0.4337,-0.4324,-0.4263,-0.4308,-0.431,-0.438,-0.4231,-0.4398,-0.4406,-0.4413,-0.4611,-0.4636,-0.4657,0,0,0,0,0,-0.4002,-0.4042,-0.4328,-0.4178,-0.4211,-0.4238,-0.4331,-0.4328,-0.4352,-0.4315,-0.4302,-0.4346,-0.4267,-0.4263,-0.4309,-0.4381,-0.4229,-0.423,-0.4403,-0.4409,-0.4415,-0.4623,0,0,0,0,0,0,-0.4011,-0.4001,-0.4332,-0.434,-0.4138,-0.4222,-0.4239,-0.4323,-0.4284,-0.4279,-0.4317,-0.4309,-0.427,-0.4267,-0.4265,-0.4386,-0.4228,-0.4229,-0.4229,-0.4408,-0.4413,-0.4417,0,0,0,0,0,0,-0.398,-0.4008,-0.4335,-0.4285,-0.4286,-0.4209,-0.4225,-0.4252,-0.4281,-0.4283,-0.4279,-0.4314,-0.4257,-0.427,-0.4268,-0.4312,-0.4226,-0.4227,-0.4228,-0.4229,-0.4412,-0.4416,0,0,0,0,0,0,-0.399,-0.4014,-0.4282,-0.4283,-0.4283,-0.4352,-0.4225,-0.4378,-0.4306,-0.4281,-0.4295,-0.429,-0.4261,-0.4258,-0.4271,-0.4316,-0.4313,-0.4226,-0.4227,-0.4228,-0.4228,0,0,0,0,0,0,0,-0.3999,-0.3861,-0.4307,-0.4281,-0.428,-0.4413,-0.4413,-0.4413,-0.4305,-0.43,-0.4296,-0.4292,-0.422,-0.4221,-0.4222,-0.432,0,0,-0.4226,-0.4227,0,0,0,0,0,0,0,0,-0.385,-0.3859,-0.4308,-0.431,-0.4313,-0.4413,-0.4413,-0.4413,-0.4304,-0.4301,-0.4297,-0.4293,-0.422,-0.4221,-0.4222,0,0,0,0,0,0,0,0,0,0,0,0,0,0,0,-0.4308,-0.431,0,-0.4413,-0.4413,-0.4413,-0.4304,-0.4301,-0.4298,-0.4295,-0.4221,-0.4221,-0.4222,0,0,0,0,0,0,0,0,0,0,0,0,0,0,0,0,0,0,0,0,0,0,0,0,0,0,0,0,0,0,0,0,0,0,0,0,0,0,0,0,0,0,0,0,0,0,0,0,0,0,0,0,0,0,0,0,0,0,0,0,0,0,0,0,0,0,0,0,0]}],[{"header":{"parameterUnit":"kt","parameterCategory":2,"dx":1,"dy":1,"la1":30.253999710083008,"la2":30.299108505249023,"lo1":-89.0895004272461,"lo2":-89.04439544677734,"nx":28,"ny":28,"refTime":"2022-09-17T21:00:00:Z","depth":"0","parameterNumber":3,"parameterNumberName":"V-component_of_CURRENTS"},"data":[-0.4551,-0.4469,-0.4457,-0.4234,-0.4128,-0.3673,-0.3363,-0.2728,-0.2046,-0.0621,0.0507,0.1152,0.1389,0.1208,0.1425,0.1461,0.162,0.1563,0.1569,0.1139,0.1032,0.0931,0.1119,0.1942,0.1943,0.2317,0.2322,0.2325,-0.4655,-0.4625,-0.4582,-0.4437,-0.4337,-0.4331,-0.4022,-0.361,-0.2998,-0.2315,-0.1713,-0.0585,-0.0237,-0.0049,0.0308,0.0517,0.043,0.0617,0.057,0.0625,-0.0064,0.011,0.0732,0.0732,0.0732,0.0731,0.0731,0.0731,-0.4794,-0.4742,-0.4689,-0.4601,-0.4545,-0.4414,-0.4176,-0.3993,-0.3666,-0.2996,-0.3046,-0.2229,-0.1944,-0.1302,-0.1222,-0.0698,-0.0995,-0.0501,-0.0507,-0.063,-0.033,-0.1143,-0.0762,-0.0766,-0.0769,-0.0771,-0.0774,0,-0.4859,-0.4836,-0.4764,-0.4698,-0.4622,-0.4526,-0.4417,-0.4335,-0.4155,-0.3897,-0.3554,-0.3313,-0.2937,-0.2369,-0.1978,-0.1809,-0.158,-0.1698,-0.142,-0.0914,-0.0955,-0.0813,-0.1809,-0.1495,-0.1503,-0.1509,-0.1513,-0.1516,-0.4896,-0.4861,-0.475,-0.4695,-0.463,-0.4544,-0.4482,-0.4367,-0.4251,-0.4028,-0.3929,-0.3673,-0.3359,-0.2932,-0.2576,-0.2275,-0.2158,-0.1893,-0.1841,-0.1551,-0.1516,-0.1598,-0.1478,-0.16,-0.1589,-0.1581,-0.1574,0,-0.4895,-0.4832,-0.4737,-0.4607,-0.4575,-0.4508,-0.4392,-0.4306,-0.4189,-0.4021,-0.397,-0.3734,-0.3478,-0.3258,-0.303,-0.2853,-0.2416,-0.2527,-0.2343,-0.2292,-0.1711,-0.1685,-0.1365,-0.1182,-0.226,-0.2253,-0.2247,0,-0.485,-0.4784,-0.4672,-0.4628,-0.4545,-0.4431,-0.4339,-0.4237,-0.4093,-0.3947,-0.3791,-0.3654,-0.3452,-0.3277,-0.3158,-0.2867,-0.2974,-0.2681,-0.2663,-0.2478,-0.2446,-0.2127,-0.2085,-0.2879,-0.2879,-0.2879,-0.2879,0,-0.4829,-0.4699,-0.4648,-0.4584,-0.4417,-0.4382,-0.4302,-0.4117,-0.4039,-0.3851,-0.3772,-0.356,-0.3469,-0.3338,-0.3142,-0.3179,-0.2954,-0.3005,-0.2738,-0.2729,-0.2472,-0.2438,-0.1975,-0.2878,-0.2878,-0.2878,-0.2878,0,-0.4757,-0.4697,-0.4625,-0.4479,-0.4439,-0.4364,-0.4203,-0.4119,-0.3921,-0.3838,-0.3679,-0.3557,-0.338,-0.335,-0.3158,-0.3196,-0.3139,-0.307,-0.307,-0.2798,-0.283,-0.2625,-0.2456,-0.2142,-0.3135,-0.3136,-0.3137,0,-0.4752,-0.468,-0.4595,-0.4484,-0.4408,-0.4272,-0.4201,-0.4047,-0.3925,-0.3808,-0.3649,-0.3529,-0.3456,-0.3401,-0.3291,-0.3192,-0.3129,-0.3163,-0.3111,-0.311,-0.2892,-0.2775,-0.2523,-0.2499,-0.3153,-0.3151,-0.315,0,-0.4729,-0.4589,-0.4572,-0.4502,-0.4327,-0.4256,-0.4175,-0.4021,-0.3953,-0.3812,-0.3734,-0.3549,-0.347,-0.3401,-0.332,-0.3223,-0.3164,-0.3225,-0.3221,-0.3253,-0.309,-0.2836,-0.2802,-0.3139,-0.3135,-0.3133,-0.3163,0,-0.459,-0.4546,-0.454,-0.4415,-0.4338,-0.4259,-0.4114,-0.4047,-0.3985,-0.387,-0.3742,-0.3629,-0.351,-0.3455,-0.3413,-0.3276,-0.332,-0.3296,-0.3277,-0.324,-0.3267,-0.3257,-0.3369,-0.3368,-0.3368,-0.3368,0,0,-0.4562,-0.4522,-0.4439,-0.4387,-0.4315,-0.4183,-0.4126,-0.4046,-0.3916,-0.3865,-0.3864,-0.3679,-0.3594,-0.3452,-0.3409,-0.3395,-0.3396,-0.3356,-0.327,-0.326,-0.325,-0.3272,-0.3263,-0.3367,-0.3367,-0.3367,-0.3367,0,-0.4495,-0.4461,-0.4455,-0.4363,-0.4239,-0.4151,-0.4144,-0.4016,-0.3961,-0.3887,-0.3819,-0.3724,-0.363,-0.3506,-0.3451,-0.3407,-0.3369,-0.3385,-0.3339,-0.3271,-0.3261,-0.3252,-0.3273,-0.3264,-0.3367,-0.3367,-0.3367,0,-0.4411,-0.4361,-0.4352,-0.4262,-0.419,-0.4112,-0.4071,-0.4001,-0.3939,-0.3879,-0.3808,-0.374,-0.3646,-0.3542,-0.3499,-0.3488,-0.3357,-0.3385,-0.3385,-0.3355,-0.3283,-0.3272,-0.3262,-0.3385,-0.3385,-0.3386,0,0,-0.4361,-0.4349,-0.4229,-0.424,-0.4196,-0.4097,-0.406,-0.3983,-0.3915,-0.3889,-0.3814,-0.3734,-0.3657,-0.3604,-0.3524,-0.3454,-0.3427,-0.339,-0.3389,-0.3388,-0.3358,-0.3286,-0.3276,-0.3387,-0.3387,-0.3387,0,0,-0.4333,-0.4232,-0.4188,-0.4201,-0.41,-0.3988,-0.3974,-0.3934,-0.3876,-0.3869,-0.3787,-0.3761,-0.3684,-0.363,-0.3657,-0.3478,-0.3479,-0.3473,-0.3504,-0.3502,-0.3501,-0.348,-0.3558,0,0,0,0,0,-0.4207,-0.4245,-0.4206,-0.4194,-0.4102,-0.401,-0.3991,-0.3904,-0.3915,-0.3889,-0.3837,-0.3773,-0.36,-0.3622,-0.3603,-0.3535,-0.3401,-0.3398,-0.3396,-0.342,-0.3419,-0.3418,0,0,0,0,0,0,-0.4201,-0.4191,-0.4203,-0.4104,-0.4081,-0.4011,-0.3966,-0.3942,-0.3912,-0.3902,-0.379,-0.3769,-0.3682,-0.3626,-0.361,-0.3546,-0.3563,-0.34,-0.3397,-0.3396,-0.342,-0.3419,-0.3418,0,0,0,0,0,-0.4197,-0.4187,-0.4074,-0.4101,-0.4081,-0.3967,-0.3965,-0.3945,-0.3925,-0.3794,-0.3773,-0.3864,-0.3685,-0.3665,-0.3616,-0.3555,-0.3574,-0.3568,-0.3398,-0.3397,-0.3395,-0.3419,0,0,0,0,0,0,-0.4193,-0.416,-0.4067,-0.4055,-0.4093,-0.3967,-0.395,-0.3947,-0.3818,-0.3796,-0.3861,-0.3854,-0.3686,-0.3671,-0.3656,-0.356,-0.3583,-0.3577,-0.3573,-0.3397,-0.3396,-0.3395,0,0,0,0,0,0,-0.4163,-0.4152,-0.4061,-0.4057,-0.4044,-0.3967,-0.3952,-0.3897,-0.3817,-0.3891,-0.3881,-0.3859,-0.3707,-0.3675,-0.3663,-0.3581,-0.3589,-0.3584,-0.358,-0.3577,-0.3396,-0.3395,0,0,0,0,0,0,-0.4156,-0.4145,-0.4059,-0.4049,-0.4038,-0.3901,-0.3915,-0.3827,-0.3815,-0.3899,-0.3811,-0.3809,-0.3713,-0.3699,-0.3668,-0.3592,-0.3583,-0.3589,-0.3585,-0.3583,-0.3581,0,0,0,0,0,0,0,-0.4149,-0.4254,-0.4135,-0.4043,-0.4033,-0.3947,-0.3944,-0.3941,-0.3815,-0.3813,-0.3811,-0.381,-0.3621,-0.3615,-0.3609,-0.3601,0,0,-0.359,-0.3587,0,0,0,0,0,0,0,0,-0.4254,-0.4254,-0.4134,-0.4132,-0.413,-0.3947,-0.3944,-0.3942,-0.3814,-0.3813,-0.3812,-0.3811,-0.362,-0.3615,-0.361,0,0,0,0,0,0,0,0,0,0,0,0,0,0,0,-0.4134,-0.4132,0,-0.3946,-0.3944,-0.3942,-0.3814,-0.3813,-0.3812,-0.3811,-0.3618,-0.3614,-0.361,0,0,0,0,0,0,0,0,0,0,0,0,0,0,0,0,0,0,0,0,0,0,0,0,0,0,0,0,0,0,0,0,0,0,0,0,0,0,0,0,0,0,0,0,0,0,0,0,0,0,0,0,0,0,0,0,0,0,0,0,0,0,0,0,0,0,0,0,0]}]],[[{"header":{"parameterUnit":"kt","parameterCategory":2,"dx":1,"dy":1,"la1":30.253999710083008,"la2":30.299108505249023,"lo1":-89.0895004272461,"lo2":-89.04439544677734,"nx":28,"ny":28,"refTime":"2022-09-17T21:00:00:Z","depth":"2","parameterNumber":2,"parameterNumberName":"U-component_of_CURRENTS"},"data":[-0.2874,-0.2592,-0.2459,-0.1949,-0.1752,-0.1413,-0.1301,-0.1173,-0.1144,-0.1057,-0.1068,-0.1297,-0.1291,-0.0997,-0.0834,-0.0585,-0.0775,-0.052,-0.1052,-0.1162,-0.1211,-0.1328,-0.1319,0,0,0,0,0,-0.3029,-0.2873,-0.2661,-0.2275,-0.2019,-0.2031,-0.1894,-0.1779,-0.1681,-0.1767,-0.1696,-0.1527,-0.1351,-0.1323,-0.0978,-0.0876,-0.0891,-0.0861,-0.0911,-0.0964,-0.1013,-0.0973,-0.0483,-0.0482,-0.0481,-0.048,0,0,-0.3229,-0.3099,-0.2809,-0.2553,-0.2389,-0.2206,-0.2105,-0.2141,-0.214,-0.2155,-0.2243,-0.2093,-0.2065,-0.1679,-0.1507,-0.1375,-0.1518,-0.1469,-0.1492,-0.1521,-0.15,-0.1501,-0.1155,-0.1158,-0.116,-0.1163,-0.1165,0,-0.324,-0.3146,-0.299,-0.2693,-0.258,-0.2475,-0.2455,-0.2484,-0.262,-0.2653,-0.2609,-0.2524,-0.2357,-0.2063,-0.1921,-0.1803,-0.1986,-0.1836,-0.2297,-0.1862,-0.187,-0.191,-0.1956,-0.1597,-0.1603,-0.1607,-0.161,-0.1613,-0.3249,-0.3139,-0.2917,-0.2787,-0.2745,-0.2716,-0.2672,-0.279,-0.2799,-0.2927,-0.289,-0.2871,-0.2739,-0.255,-0.2416,-0.2225,-0.2405,-0.1977,-0.1978,-0.2432,-0.2466,-0.2495,-0.2522,-0.1674,-0.1666,-0.166,-0.1655,0,-0.3207,-0.3112,-0.2988,-0.2872,-0.2843,-0.2821,-0.2863,-0.2859,-0.2968,-0.2964,-0.2975,-0.3022,-0.2925,-0.2888,-0.2774,-0.2709,-0.258,-0.2514,-0.2335,-0.2314,-0.2539,-0.2561,-0.2259,-0.2253,-0.2248,-0.2244,-0.224,0,-0.3157,-0.3144,-0.2999,-0.2945,-0.2885,-0.2907,-0.292,-0.2947,-0.3005,-0.2999,-0.3052,-0.3045,-0.3038,-0.2981,-0.2944,-0.2793,-0.2823,-0.2708,-0.2709,-0.2549,-0.2532,-0.295,-0.297,-0.2789,-0.279,-0.2791,-0.2792,0,-0.3222,-0.3102,-0.3016,-0.3,-0.2943,-0.2958,-0.2989,-0.3025,-0.3055,-0.3071,-0.3109,-0.3054,-0.3099,-0.3,-0.3032,-0.3066,-0.2899,-0.2964,-0.2802,-0.2798,-0.2562,-0.2542,-0.2794,-0.2794,-0.2794,-0.2795,-0.2795,0,-0.3253,-0.3148,-0.3021,-0.3007,-0.3016,-0.2995,-0.3084,-0.3069,-0.3093,-0.3144,-0.3139,-0.3188,-0.3162,-0.3237,-0.3135,-0.3197,-0.3163,-0.3159,-0.3154,-0.3033,-0.3126,-0.282,-0.2573,-0.3151,-0.3154,-0.3157,-0.3159,0,-0.3382,-0.3214,-0.3199,-0.3133,-0.3079,-0.3204,-0.3171,-0.3204,-0.3266,-0.3258,-0.3318,-0.3317,-0.3377,-0.3431,-0.3376,-0.3405,-0.3317,-0.3426,-0.3282,-0.3277,-0.3222,-0.3035,-0.2814,-0.2636,-0.3196,-0.3192,-0.319,0,-0.3491,-0.3369,-0.3391,-0.3335,-0.3373,-0.3405,-0.3379,-0.3393,-0.3396,-0.3414,-0.3367,-0.3399,-0.3465,-0.3463,-0.353,-0.3484,-0.3386,-0.3514,-0.3511,-0.3481,-0.3207,-0.3104,-0.3069,-0.3393,-0.3388,-0.3385,-0.3219,0,-0.3534,-0.3475,-0.3484,-0.3381,-0.3414,-0.347,-0.3507,-0.3537,-0.3596,-0.3578,-0.3584,-0.3673,-0.3658,-0.3658,-0.372,-0.3612,-0.3607,-0.3642,-0.3692,-0.359,-0.3533,-0.3509,-0.3793,-0.3793,-0.3794,-0.3794,0,0,-0.3697,-0.3563,-0.3607,-0.3538,-0.3582,-0.3714,-0.3666,-0.3671,-0.3723,-0.373,-0.3803,-0.3763,-0.384,-0.3795,-0.378,-0.3809,-0.3757,-0.3795,-0.3643,-0.3626,-0.3611,-0.3552,-0.3529,-0.3795,-0.3796,-0.3796,-0.3796,0,-0.3682,-0.3693,-0.3597,-0.3616,-0.3689,-0.3711,-0.3738,-0.3767,-0.3785,-0.3793,-0.3834,-0.389,-0.3888,-0.3899,-0.3899,-0.383,-0.3808,-0.3792,-0.3723,-0.3652,-0.3635,-0.3619,-0.3558,-0.3537,-0.3797,-0.3797,-0.3797,0,-0.3721,-0.3705,-0.3672,-0.3655,-0.369,-0.3661,-0.3738,-0.3823,-0.378,-0.3897,-0.3872,-0.3927,-0.3948,-0.395,-0.3965,-0.3991,-0.3867,-0.3937,-0.3931,-0.3888,-0.3816,-0.3795,-0.3778,-0.4013,-0.4014,-0.4015,0,0,-0.3713,-0.3651,-0.3673,-0.3657,-0.3689,-0.3711,-0.3742,-0.3784,-0.3848,-0.387,-0.3908,-0.3943,-0.3955,-0.4005,-0.4016,-0.4025,-0.3989,-0.3967,-0.3956,-0.3948,-0.3902,-0.3827,-0.3807,-0.4019,-0.4019,-0.4019,0,0,-0.3743,-0.371,-0.3685,-0.3657,-0.3697,-0.3731,-0.3783,-0.3782,-0.3827,-0.3878,-0.3932,-0.3964,-0.4012,-0.4032,-0.4082,-0.4004,-0.4037,-0.4031,-0.4026,-0.4014,-0.4004,-0.3949,-0.4115,0,0,0,0,0,-0.3726,-0.3702,-0.3678,-0.3681,-0.3653,-0.3704,-0.3706,-0.3777,-0.3795,-0.3799,-0.3886,-0.3919,-0.4052,-0.4101,-0.4114,-0.4057,-0.4071,-0.4062,-0.4053,-0.4046,-0.4032,-0.4021,0,0,0,0,0,0,-0.3728,-0.3718,-0.3685,-0.3706,-0.3709,-0.3699,-0.3733,-0.3744,-0.3799,-0.3811,-0.3892,-0.3919,-0.3968,-0.4096,-0.4108,-0.4052,-0.4111,-0.4067,-0.406,-0.4052,-0.4041,-0.403,-0.402,0,0,0,0,0,-0.373,-0.3724,-0.3653,-0.3708,-0.3709,-0.3806,-0.3735,-0.3746,-0.3755,-0.3876,-0.3898,-0.3834,-0.3962,-0.3984,-0.4103,-0.4045,-0.4104,-0.4108,-0.4062,-0.4056,-0.4051,-0.4036,0,0,0,0,0,0,-0.3733,-0.3674,-0.3655,-0.3663,-0.3771,-0.381,-0.3808,-0.3746,-0.3816,-0.3842,-0.3821,-0.383,-0.3956,-0.3974,-0.399,-0.4038,-0.4097,-0.4102,-0.4104,-0.4058,-0.4053,-0.4048,0,0,0,0,0,0,-0.3684,-0.3675,-0.3657,-0.373,-0.3744,-0.3814,-0.3813,-0.384,-0.382,-0.3749,-0.3763,-0.3826,-0.402,-0.3967,-0.398,-0.4009,-0.4093,-0.4097,-0.4099,-0.4101,-0.4054,-0.405,0,0,0,0,0,0,-0.3683,-0.3677,-0.3725,-0.3736,-0.3748,-0.3799,-0.3844,-0.3838,-0.3799,-0.3743,-0.3814,-0.3821,-0.4017,-0.4025,-0.3972,-0.3995,-0.4006,-0.4093,-0.4096,-0.4097,-0.4099,0,0,0,0,0,0,0,-0.3683,-0.369,-0.3663,-0.3741,-0.3751,-0.3739,-0.3735,-0.3732,-0.38,-0.3806,-0.3813,-0.3818,-0.407,-0.4074,-0.4079,-0.3982,0,0,-0.4092,-0.4094,0,0,0,0,0,0,0,0,-0.3697,-0.3692,-0.3664,-0.3668,-0.3672,-0.3738,-0.3736,-0.3733,-0.3801,-0.3806,-0.3811,-0.3816,-0.4071,-0.4074,-0.4078,0,0,0,0,0,0,0,0,0,0,0,0,0,0,0,-0.3664,-0.3668,0,-0.3738,-0.3736,-0.3734,-0.3802,-0.3806,-0.381,-0.3814,-0.4072,-0.4075,-0.4078,0,0,0,0,0,0,0,0,0,0,0,0,0,0,0,0,0,0,0,0,0,0,0,0,0,0,0,0,0,0,0,0,0,0,0,0,0,0,0,0,0,0,0,0,0,0,0,0,0,0,0,0,0,0,0,0,0,0,0,0,0,0,0,0,0,0,0,0,0]}],[{"header":{"parameterUnit":"kt","parameterCategory":2,"dx":1,"dy":1,"la1":30.253999710083008,"la2":30.299108505249023,"lo1":-89.0895004272461,"lo2":-89.04439544677734,"nx":28,"ny":28,"refTime":"2022-09-17T21:00:00:Z","depth":"2","parameterNumber":3,"parameterNumberName":"V-component_of_CURRENTS"},"data":[-0.023,-0.0465,-0.066,-0.1057,-0.1256,-0.1434,-0.1473,-0.142,-0.116,-0.0743,-0.0311,0.0218,0.0734,0.0793,0.1,0.1145,0.1067,0.1098,0.129,0.1065,0.1054,0.1173,0.1113,0,0,0,0,0,-0.025,-0.046,-0.0702,-0.1013,-0.123,-0.1264,-0.1337,-0.133,-0.1191,-0.0748,-0.0323,0.0151,0.0613,0.097,0.1212,0.1359,0.1243,0.1326,0.1157,0.1151,0.1145,0.1106,0.1209,0.1208,0.1207,0.1206,0,0,-0.0331,-0.0459,-0.0712,-0.0926,-0.1083,-0.1212,-0.1262,-0.121,-0.1089,-0.0784,-0.0358,0.0156,0.0508,0.103,0.1216,0.1338,0.1386,0.1341,0.133,0.132,0.1299,0.137,0.1449,0.1449,0.145,0.1451,0.1451,0,-0.0387,-0.0504,-0.0636,-0.0893,-0.0988,-0.1073,-0.1084,-0.1083,-0.0911,-0.0732,-0.0354,-0.0044,0.0483,0.0848,0.1173,0.1292,0.1162,0.1263,0.124,0.1033,0.1101,0.1184,0.1188,0.1125,0.1124,0.1124,0.1123,0.1123,-0.0433,-0.0514,-0.0721,-0.0815,-0.0844,-0.0893,-0.0922,-0.0839,-0.0806,-0.0499,-0.0447,-0.0093,0.0235,0.0691,0.0912,0.1173,0.1171,0.1228,0.1166,0.1206,0.1293,0.1297,0.1301,0.1112,0.1113,0.1114,0.1115,0,-0.0467,-0.0527,-0.063,-0.071,-0.073,-0.077,-0.0749,-0.0743,-0.0622,-0.0525,-0.0487,-0.0187,0.0131,0.035,0.0634,0.0742,0.0957,0.1064,0.105,0.1125,0.1273,0.1283,0.1237,0.1242,0.1246,0.1249,0.1252,0,-0.0467,-0.049,-0.0579,-0.0624,-0.0684,-0.0638,-0.064,-0.0581,-0.0487,-0.0423,-0.0278,-0.0124,0.0082,0.0284,0.0494,0.0791,0.0693,0.0991,0.1074,0.1012,0.1026,0.1034,0.1057,0.0823,0.0822,0.0821,0.082,0,-0.0414,-0.0467,-0.0534,-0.054,-0.0542,-0.054,-0.0502,-0.041,-0.0359,-0.0245,-0.0177,-0.0048,0.0149,0.0216,0.0614,0.0609,0.0811,0.0846,0.1063,0.1081,0.1082,0.1106,0.0819,0.0819,0.0818,0.0818,0.0818,0,-0.0347,-0.0414,-0.0487,-0.0491,-0.0487,-0.0472,-0.0398,-0.0338,-0.0222,-0.0124,-0.003,0.0167,0.0328,0.0455,0.0664,0.0664,0.0818,0.0976,0.0983,0.1167,0.135,0.1303,0.1218,0.1196,0.1197,0.1199,0.12,0,-0.0261,-0.036,-0.0359,-0.0375,-0.0404,-0.0297,-0.0251,-0.0174,-0.0045,0.0032,0.0248,0.045,0.0633,0.0793,0.0792,0.1114,0.1074,0.1096,0.124,0.1246,0.1289,0.1203,0.1135,0.1238,0.1218,0.1216,0.1215,0,-0.0204,-0.0269,-0.0259,-0.0288,-0.0217,-0.0196,-0.0122,-0.0058,-0.0006,0.0151,0.0203,0.0619,0.0713,0.0912,0.1175,0.1172,0.1129,0.1308,0.1311,0.128,0.1088,0.1221,0.1223,0.1117,0.1112,0.1108,0.1229,0,-0.0173,-0.0208,-0.0206,-0.0225,-0.0196,-0.0152,-0.0048,0.0014,0.0159,0.0228,0.0461,0.0777,0.1026,0.1192,0.1416,0.1464,0.1546,0.1591,0.1573,0.1506,0.1595,0.1583,0.1795,0.1799,0.1803,0.1806,0,0,-0.0075,-0.0164,-0.0138,-0.0166,-0.0128,0.0011,0.0006,0.0091,0.0285,0.0334,0.0467,0.0925,0.1223,0.1455,0.1523,0.1681,0.1699,0.167,0.16,0.1576,0.1555,0.1628,0.1611,0.1812,0.1814,0.1815,0.1816,0,-0.0083,-0.01,-0.0149,-0.0125,-0.005,0.001,0.0043,0.0148,0.0239,0.0406,0.0657,0.0891,0.1268,0.1458,0.1631,0.1712,0.1818,0.1857,0.1673,0.1633,0.1604,0.158,0.1645,0.1628,0.1825,0.1824,0.1824,0,-0.0052,-0.005,-0.0065,-0.0067,-0.0008,0.0011,0.0121,0.0206,0.026,0.0534,0.0703,0.0955,0.1288,0.1508,0.165,0.166,0.1849,0.1895,0.1883,0.1827,0.1787,0.1758,0.1732,0.2038,0.2037,0.2037,0,0,-0.0046,-0.0087,-0.0036,-0.0054,-0.003,0.0073,0.0119,0.0208,0.0384,0.0469,0.0683,0.0964,0.1237,0.1386,0.163,0.1802,0.1826,0.1905,0.1895,0.1885,0.1825,0.1783,0.1758,0.2033,0.2033,0.2033,0,0,0.0005,0.0022,0.0028,-0.0005,0.0052,0.0157,0.0197,0.0276,0.0457,0.0537,0.0805,0.0892,0.1185,0.1343,0.1266,0.1647,0.1709,0.173,0.1489,0.1481,0.1472,0.1332,0.1438,0,0,0,0,0,0.0045,-0.0,0.0002,0.0008,0.005,0.0109,0.0123,0.0263,0.036,0.0369,0.0627,0.078,0.1364,0.13,0.1368,0.1436,0.199,0.1998,0.2005,0.1745,0.1734,0.1724,0,0,0,0,0,0,0.0048,0.0046,0.0008,0.0093,0.0109,0.0108,0.0231,0.0264,0.0364,0.0391,0.0714,0.0785,0.0962,0.1281,0.1339,0.1399,0.1419,0.1993,0.2,0.2006,0.1741,0.1732,0.1723,0,0,0,0,0,0.0052,0.0051,0.0073,0.0098,0.0111,0.0279,0.0236,0.0265,0.0347,0.0637,0.0705,0.0471,0.095,0.1026,0.1317,0.1368,0.1381,0.1402,0.1998,0.2003,0.2007,0.1737,0,0,0,0,0,0,0.0055,0.0055,0.008,0.0093,0.0169,0.0286,0.0302,0.0266,0.0596,0.0654,0.0405,0.0423,0.0941,0.1002,0.1058,0.1345,0.1349,0.1371,0.1384,0.2001,0.2005,0.2009,0,0,0,0,0,0,0.0059,0.0061,0.0086,0.0166,0.0188,0.0292,0.0306,0.0499,0.0609,0.0347,0.0369,0.0412,0.0995,0.0983,0.1029,0.1311,0.1325,0.1346,0.136,0.1368,0.2005,0.2008,0,0,0,0,0,0,0.0064,0.0067,0.0162,0.0178,0.0198,0.033,0.0482,0.0588,0.0444,0.0337,0.0464,0.0473,0.0982,0.1023,0.1007,0.1268,0.13,0.1326,0.134,0.135,0.1356,0,0,0,0,0,0,0,0.0068,0.0003,0.0031,0.0189,0.0206,0.021,0.0211,0.0213,0.0446,0.0454,0.0462,0.0469,0.121,0.1232,0.1255,0.1232,0,0,0.1324,0.1334,0,0,0,0,0,0,0,0,0.0007,0.0004,0.0031,0.0035,0.0039,0.0211,0.0211,0.0212,0.0447,0.0454,0.046,0.0466,0.1216,0.1234,0.1252,0,0,0,0,0,0,0,0,0,0,0,0,0,0,0,0.0032,0.0035,0,0.0211,0.0211,0.0212,0.0448,0.0453,0.0459,0.0464,0.1221,0.1236,0.1251,0,0,0,0,0,0,0,0,0,0,0,0,0,0,0,0,0,0,0,0,0,0,0,0,0,0,0,0,0,0,0,0,0,0,0,0,0,0,0,0,0,0,0,0,0,0,0,0,0,0,0,0,0,0,0,0,0,0,0,0,0,0,0,0,0,0,0,0,0]}]],[[{"header":{"parameterUnit":"kt","parameterCategory":2,"dx":1,"dy":1,"la1":30.253999710083008,"la2":30.299108505249023,"lo1":-89.0895004272461,"lo2":-89.04439544677734,"nx":28,"ny":28,"refTime":"2022-09-17T21:00:00:Z","depth":"4","parameterNumber":2,"parameterNumberName":"U-component_of_CURRENTS"},"data":[-0.1036,-0.1044,-0.1035,-0.1011,-0.1024,-0.1123,-0.1233,-0.1378,-0.1349,-0.1524,-0.1445,-0.1586,-0.1463,-0.1589,-0.1378,-0.138,-0.1461,-0.1437,-0.1433,-0.1646,-0.1668,-0.1687,-0.1696,0,0,0,0,0,-0.1104,-0.1058,-0.1113,-0.1205,-0.13,-0.1369,-0.1555,-0.168,-0.1859,-0.1741,-0.1848,-0.1716,-0.1599,-0.1601,-0.1445,-0.1603,-0.1593,-0.1423,-0.1602,-0.166,-0.1683,-0.1684,0,0,0,0,0,0,-0.1188,-0.1196,-0.1282,-0.1382,-0.1503,-0.1561,-0.1686,-0.1735,-0.1822,-0.1988,-0.1929,-0.1914,-0.1952,-0.1801,-0.1711,-0.1612,-0.1596,-0.1592,-0.1617,-0.164,-0.1625,-0.1547,-0.1315,0,0,0,0,0,-0.1276,-0.1341,-0.1426,-0.1554,-0.1668,-0.1793,-0.1921,-0.1954,-0.2131,-0.2275,-0.2198,-0.2147,-0.2012,-0.1921,-0.1819,-0.174,-0.1945,-0.1834,-0.1847,-0.1903,-0.186,-0.1847,-0.1862,-0.1773,-0.1776,-0.1778,-0.1779,0,-0.1373,-0.142,-0.164,-0.1709,-0.1812,-0.1969,-0.2051,-0.2254,-0.2293,-0.2422,-0.2391,-0.2367,-0.2354,-0.2082,-0.209,-0.1957,-0.1933,-0.1896,-0.1955,-0.1899,-0.1877,-0.1888,-0.1896,-0.1798,-0.1797,-0.1795,-0.1794,0,-0.1419,-0.1556,-0.168,-0.1897,-0.1972,-0.2056,-0.2254,-0.2312,-0.2451,-0.2488,-0.2512,-0.2564,-0.246,-0.2431,-0.234,-0.2265,-0.2151,-0.2068,-0.2254,-0.2236,-0.193,-0.1931,-0.1829,-0.1822,-0.1817,-0.1812,-0.1808,0,-0.1544,-0.163,-0.1831,-0.1877,-0.2017,-0.2147,-0.2267,-0.2364,-0.2478,-0.2512,-0.26,-0.2587,-0.2596,-0.2538,-0.2473,-0.2293,-0.2396,-0.2169,-0.2135,-0.2354,-0.2353,-0.2327,-0.2323,-0.2368,-0.2369,-0.2369,-0.237,0,-0.1561,-0.1745,-0.1847,-0.1901,-0.208,-0.2162,-0.2256,-0.2371,-0.2437,-0.253,-0.2564,-0.26,-0.2576,-0.2561,-0.2448,-0.2473,-0.2375,-0.2396,-0.2183,-0.2168,-0.233,-0.2325,-0.2371,-0.2371,-0.2371,-0.2372,-0.2372,0,-0.1631,-0.1727,-0.1844,-0.2007,-0.2048,-0.2119,-0.2265,-0.2339,-0.2431,-0.2479,-0.2529,-0.2532,-0.253,-0.2495,-0.2454,-0.2479,-0.2422,-0.2375,-0.2371,-0.2184,-0.2139,-0.2247,-0.2288,-0.2288,-0.2288,-0.2288,-0.2288,0,-0.1624,-0.1738,-0.1808,-0.1924,-0.1993,-0.2082,-0.2158,-0.2244,-0.2305,-0.2369,-0.2382,-0.2423,-0.2395,-0.2409,-0.2413,-0.2364,-0.2355,-0.2371,-0.2319,-0.2315,-0.2157,-0.2157,-0.2394,-0.2289,-0.2289,-0.2289,-0.2289,0,-0.159,-0.173,-0.1744,-0.1804,-0.1916,-0.1972,-0.206,-0.2158,-0.2219,-0.2268,-0.2335,-0.2352,-0.2351,-0.236,-0.2347,-0.2347,-0.2347,-0.2332,-0.2331,-0.2286,-0.2354,-0.2178,-0.2159,-0.2389,-0.239,-0.2391,-0.229,0,-0.1627,-0.1687,-0.1726,-0.1801,-0.186,-0.1938,-0.1999,-0.206,-0.2108,-0.2147,-0.2218,-0.2209,-0.225,-0.2252,-0.2237,-0.2283,-0.2262,-0.2269,-0.2249,-0.229,-0.2234,-0.2234,-0.2221,-0.2219,-0.2218,-0.2218,0,0,-0.158,-0.164,-0.1677,-0.1734,-0.1789,-0.1839,-0.1906,-0.1953,-0.2031,-0.2072,-0.2066,-0.2136,-0.2129,-0.2184,-0.2195,-0.2195,-0.2191,-0.2217,-0.2266,-0.2272,-0.2277,-0.2228,-0.2229,-0.2216,-0.2215,-0.2215,-0.2215,0,-0.1585,-0.1619,-0.1653,-0.1703,-0.1782,-0.1825,-0.1849,-0.1931,-0.1977,-0.2034,-0.204,-0.2061,-0.2113,-0.2123,-0.2134,-0.218,-0.2171,-0.2203,-0.2243,-0.2257,-0.2264,-0.227,-0.2224,-0.2225,-0.2212,-0.2212,-0.2212,0,-0.1559,-0.1599,-0.1611,-0.1683,-0.1734,-0.179,-0.1808,-0.1889,-0.1939,-0.1935,-0.2008,-0.2017,-0.203,-0.2077,-0.2098,-0.2087,-0.2142,-0.2139,-0.2144,-0.214,-0.2153,-0.2162,-0.2169,-0.2076,-0.2076,-0.2076,0,0,-0.156,-0.1591,-0.1646,-0.1684,-0.1715,-0.1778,-0.1819,-0.1863,-0.1914,-0.1943,-0.1968,-0.1994,-0.2018,-0.204,-0.2058,-0.2097,-0.2074,-0.2125,-0.2131,-0.2137,-0.2136,-0.215,-0.2158,-0.2075,-0.2075,-0.2075,0,0,-0.1566,-0.1618,-0.1621,-0.1669,-0.1722,-0.1798,-0.1846,-0.1875,-0.1931,-0.1944,-0.1956,-0.1964,-0.2009,-0.2009,-0.1995,-0.2066,-0.2036,-0.2039,-0.208,-0.2088,-0.2094,-0.2091,-0.1995,0,0,0,0,0,-0.1572,-0.1604,-0.1604,-0.1617,-0.1707,-0.1782,-0.1799,-0.1861,-0.1878,-0.1917,-0.1941,-0.1945,-0.2007,-0.1995,-0.2,-0.2042,-0.2063,-0.2065,-0.2067,-0.2128,-0.2136,-0.2143,0,0,0,0,0,0,-0.1577,-0.1591,-0.1605,-0.1673,-0.1694,-0.1781,-0.1796,-0.1814,-0.1876,-0.1885,-0.194,-0.1946,-0.1955,-0.1992,-0.1997,-0.2037,-0.1993,-0.2064,-0.2066,-0.2067,-0.2131,-0.2138,-0.2143,0,0,0,0,0,-0.1582,-0.1593,-0.1715,-0.1675,-0.1693,-0.1777,-0.1796,-0.1812,-0.1873,-0.1897,-0.1907,-0.192,-0.1954,-0.1961,-0.1995,-0.2035,-0.199,-0.1992,-0.2065,-0.2066,-0.2068,-0.2134,0,0,0,0,0,0,-0.1585,-0.1618,-0.1721,-0.173,-0.1674,-0.1776,-0.1792,-0.1809,-0.1882,-0.1894,-0.1872,-0.1877,-0.1954,-0.1959,-0.1963,-0.2035,-0.1987,-0.1989,-0.199,-0.2066,-0.2067,-0.2068,0,0,0,0,0,0,-0.1612,-0.1625,-0.1726,-0.1721,-0.1731,-0.1775,-0.1789,-0.1805,-0.188,-0.1855,-0.1861,-0.1873,-0.1925,-0.1957,-0.1961,-0.1986,-0.1985,-0.1987,-0.1988,-0.1989,-0.2067,-0.2068,0,0,0,0,0,0,-0.1619,-0.163,-0.172,-0.1727,-0.1735,-0.1842,-0.1789,-0.1866,-0.1912,-0.1849,-0.1913,-0.1914,-0.1921,-0.1928,-0.1959,-0.1983,-0.1985,-0.1985,-0.1987,-0.1987,-0.1988,0,0,0,0,0,0,0,-0.1625,-0.1531,-0.1664,-0.1731,-0.1738,-0.1811,-0.1814,-0.1817,-0.1912,-0.1913,-0.1913,-0.1914,-0.1975,-0.1977,-0.1979,-0.198,0,0,-0.1985,-0.1986,0,0,0,0,0,0,0,0,-0.1528,-0.153,-0.1665,-0.1666,-0.1668,-0.1811,-0.1814,-0.1816,-0.1912,-0.1913,-0.1913,-0.1914,-0.1976,-0.1977,-0.1979,0,0,0,0,0,0,0,0,0,0,0,0,0,0,0,-0.1665,-0.1666,0,-0.1812,-0.1814,-0.1815,-0.1912,-0.1913,-0.1913,-0.1913,-0.1976,-0.1978,-0.1979,0,0,0,0,0,0,0,0,0,0,0,0,0,0,0,0,0,0,0,0,0,0,0,0,0,0,0,0,0,0,0,0,0,0,0,0,0,0,0,0,0,0,0,0,0,0,0,0,0,0,0,0,0,0,0,0,0,0,0,0,0,0,0,0,0,0,0,0,0]}],[{"header":{"parameterUnit":"kt","parameterCategory":2,"dx":1,"dy":1,"la1":30.253999710083008,"la2":30.299108505249023,"lo1":-89.0895004272461,"lo2":-89.04439544677734,"nx":28,"ny":28,"refTime":"2022-09-17T21:00:00:Z","depth":"4","parameterNumber":3,"parameterNumberName":"V-component_of_CURRENTS"},"data":[-0.0882,-0.0968,-0.1,-0.1138,-0.1213,-0.1299,-0.1301,-0.1228,-0.1126,-0.0966,-0.0726,-0.0544,-0.0122,-0.0241,0.0298,0.0376,0.0386,0.0915,0.0918,0.0936,0.0932,0.0928,0.0791,0,0,0,0,0,-0.0837,-0.0902,-0.0987,-0.1086,-0.1166,-0.1206,-0.1208,-0.1172,-0.1054,-0.0931,-0.0808,-0.0532,-0.0114,0.0098,0.0312,0.0437,0.07,0.0685,0.0688,0.0934,0.0929,0.0797,0,0,0,0,0,0,-0.0785,-0.0838,-0.0908,-0.0992,-0.1076,-0.1134,-0.1128,-0.1064,-0.1005,-0.078,-0.0707,-0.0361,-0.0137,0.0222,0.0456,0.0674,0.0689,0.0683,0.0692,0.069,0.055,0.0422,0.0574,0,0,0,0,0,-0.0731,-0.0762,-0.0802,-0.0909,-0.0965,-0.101,-0.1019,-0.1006,-0.0882,-0.0786,-0.0574,-0.0337,-0.005,0.0258,0.0522,0.072,0.0831,0.0908,0.0905,0.08,0.0728,0.0711,0.0687,0.0912,0.0911,0.0911,0.091,0,-0.0674,-0.0706,-0.0766,-0.0814,-0.083,-0.0854,-0.0873,-0.0787,-0.076,-0.057,-0.0543,-0.0285,-0.0129,0.0262,0.0489,0.0799,0.0808,0.0896,0.0784,0.0718,0.0708,0.0683,0.066,0.0907,0.0907,0.0907,0.0908,0,-0.0651,-0.0659,-0.0704,-0.0709,-0.072,-0.0739,-0.0718,-0.07,-0.0592,-0.0528,-0.0493,-0.0273,-0.0039,0.0179,0.0449,0.0525,0.0719,0.0778,0.0643,0.0639,0.0666,0.0644,0.0901,0.0902,0.0903,0.0904,0.0905,0,-0.0609,-0.0633,-0.0649,-0.0668,-0.069,-0.064,-0.0625,-0.0568,-0.0475,-0.0435,-0.0295,-0.022,-0.0013,0.0154,0.0278,0.0475,0.0524,0.0552,0.0569,0.0439,0.0419,0.0459,0.0438,0.0621,0.0619,0.0618,0.0616,0,-0.059,-0.0595,-0.0617,-0.0619,-0.0598,-0.0585,-0.056,-0.0474,-0.0445,-0.0318,-0.0281,-0.0122,-0.0065,0.0097,0.0222,0.0177,0.0463,0.0415,0.0496,0.0493,0.0442,0.0424,0.0614,0.0614,0.0614,0.0613,0.0613,0,-0.0556,-0.0572,-0.0587,-0.0581,-0.0575,-0.0562,-0.0503,-0.0465,-0.0361,-0.0322,-0.0234,-0.0195,-0.0078,-0.0091,0.0118,0.0034,0.0123,0.0185,0.0194,0.019,0.0135,0.0141,0.0262,0.0258,0.0255,0.0252,0.0249,0,-0.0552,-0.0566,-0.0547,-0.055,-0.0559,-0.0521,-0.0483,-0.0436,-0.0391,-0.0333,-0.0266,-0.0234,-0.0237,-0.0233,-0.0133,-0.0082,0.0029,-0.0095,0.0107,0.0113,0.0092,0.0206,-0.0008,0.0203,0.0209,0.0213,0.0216,0,-0.0547,-0.0554,-0.0555,-0.0567,-0.0537,-0.0527,-0.0481,-0.0439,-0.0406,-0.0371,-0.0314,-0.0289,-0.0273,-0.0258,-0.0261,-0.0171,-0.0039,-0.0183,-0.0178,-0.0096,0.0178,0.0152,0.0176,-0.0031,-0.0026,-0.0023,0.0185,0,-0.0548,-0.0559,-0.0553,-0.0547,-0.0531,-0.0524,-0.0491,-0.0474,-0.0458,-0.0432,-0.0392,-0.0379,-0.0347,-0.0352,-0.0364,-0.027,-0.0272,-0.0284,-0.0268,-0.0214,-0.0137,-0.0112,-0.0412,-0.0412,-0.0412,-0.0413,0,0,-0.0553,-0.056,-0.0554,-0.0548,-0.0541,-0.0523,-0.0515,-0.0491,-0.0476,-0.0458,-0.0471,-0.0433,-0.0438,-0.0387,-0.0384,-0.04,-0.0348,-0.039,-0.0265,-0.0249,-0.0234,-0.0156,-0.0132,-0.0413,-0.0413,-0.0413,-0.0414,0,-0.0549,-0.0557,-0.056,-0.0553,-0.0539,-0.0522,-0.052,-0.0501,-0.0488,-0.0477,-0.048,-0.0464,-0.0468,-0.0441,-0.0432,-0.041,-0.0375,-0.043,-0.0373,-0.0272,-0.0255,-0.0241,-0.0161,-0.0139,-0.0414,-0.0414,-0.0414,0,-0.0553,-0.0549,-0.0555,-0.0546,-0.0536,-0.0521,-0.0517,-0.0502,-0.0485,-0.0496,-0.0481,-0.049,-0.0482,-0.0469,-0.0467,-0.0463,-0.0375,-0.0448,-0.0446,-0.0417,-0.0311,-0.0293,-0.0278,-0.0472,-0.0472,-0.0472,0,0,-0.055,-0.0556,-0.0543,-0.0544,-0.0538,-0.0522,-0.0513,-0.0505,-0.0494,-0.0492,-0.0492,-0.0487,-0.0483,-0.0477,-0.048,-0.0466,-0.0411,-0.0455,-0.0452,-0.045,-0.042,-0.0314,-0.0298,-0.0473,-0.0473,-0.0473,0,0,-0.0541,-0.0536,-0.0544,-0.0542,-0.0532,-0.0505,-0.0497,-0.0492,-0.0488,-0.0489,-0.0489,-0.049,-0.049,-0.0486,-0.0495,-0.047,-0.0481,-0.048,-0.0468,-0.0465,-0.0462,-0.0426,-0.0497,0,0,0,0,0,-0.0538,-0.0538,-0.0546,-0.0544,-0.0528,-0.0506,-0.0503,-0.049,-0.0488,-0.0487,-0.0486,-0.0489,-0.0485,-0.0493,-0.0494,-0.048,-0.0481,-0.048,-0.0478,-0.0462,-0.0459,-0.0456,0,0,0,0,0,0,-0.0537,-0.0536,-0.0545,-0.0521,-0.0516,-0.0507,-0.0501,-0.0497,-0.0489,-0.0488,-0.0488,-0.0489,-0.0489,-0.0493,-0.0494,-0.048,-0.0497,-0.0481,-0.048,-0.0478,-0.0461,-0.0458,-0.0456,0,0,0,0,0,-0.0537,-0.0535,-0.0518,-0.052,-0.0516,-0.0497,-0.0501,-0.0498,-0.0494,-0.0489,-0.0489,-0.0485,-0.0489,-0.049,-0.0494,-0.0479,-0.0496,-0.0496,-0.048,-0.0479,-0.0478,-0.046,0,0,0,0,0,0,-0.0536,-0.0531,-0.0517,-0.0514,-0.0523,-0.0497,-0.0495,-0.0499,-0.0496,-0.0495,-0.0486,-0.0486,-0.0488,-0.0489,-0.049,-0.0478,-0.0496,-0.0496,-0.0496,-0.0479,-0.0478,-0.0478,0,0,0,0,0,0,-0.0531,-0.0529,-0.0515,-0.052,-0.0518,-0.0498,-0.0496,-0.0499,-0.0497,-0.0494,-0.0493,-0.0486,-0.0496,-0.0489,-0.049,-0.0493,-0.0495,-0.0496,-0.0496,-0.0496,-0.0479,-0.0478,0,0,0,0,0,0,-0.053,-0.0528,-0.0521,-0.0519,-0.0518,-0.0489,-0.0501,-0.0492,-0.048,-0.0495,-0.048,-0.0481,-0.0496,-0.0496,-0.0489,-0.0492,-0.0493,-0.0495,-0.0496,-0.0496,-0.0496,0,0,0,0,0,0,0,-0.0528,-0.0548,-0.053,-0.0519,-0.0517,-0.049,-0.049,-0.0489,-0.048,-0.048,-0.048,-0.0481,-0.0494,-0.0494,-0.0494,-0.0492,0,0,-0.0495,-0.0495,0,0,0,0,0,0,0,0,-0.0548,-0.0548,-0.053,-0.0529,-0.0529,-0.049,-0.049,-0.0489,-0.048,-0.048,-0.048,-0.048,-0.0494,-0.0494,-0.0494,0,0,0,0,0,0,0,0,0,0,0,0,0,0,0,-0.053,-0.0529,0,-0.049,-0.049,-0.0489,-0.048,-0.048,-0.048,-0.048,-0.0494,-0.0494,-0.0494,0,0,0,0,0,0,0,0,0,0,0,0,0,0,0,0,0,0,0,0,0,0,0,0,0,0,0,0,0,0,0,0,0,0,0,0,0,0,0,0,0,0,0,0,0,0,0,0,0,0,0,0,0,0,0,0,0,0,0,0,0,0,0,0,0,0,0,0,0]}]]]